NOAA 16 DEB, 41667

Orbit data source: Space-Track

NOAA 16 DEB, 41667 is space debris in SSO originally from a launch on Thu, 21 Sep 2000 UTC launched from the Air Force Western Test Range (AFWTR). Debris objects in space refer to the collection of defunct objects orbiting the Earth. Examples of debris include non-operational satellites, rocket bodies, and fragments generated from explosions, collisions, or faulty payload assembly.

Loading next visibility...
Identifier
41667, 2000-055PG
Orbit
SSO
Country
Flag of USUS
Related business
Manufacturer
Unknown
Mission
Spacecraft
Bus & Motor
Unknown
Mass
Unknown
Launch date (UTC)
2000-09-21 (25 years ago)
Launch vehicle
Unknown
Launch site
Air Force Western Test Range (AFWTR)
Object type
Payload
Rocket body
Debris
Shape & HBR
Unknown shape, 0.1 m
Radar Cross Section
Small (<0.1 m²)

Expand to show TLE details & history
Last TLE update: 2 days ago

TLE from 2 days ago
0 NOAA 16 DEB
1 41667U 00055PG  25341.50996078  .00002540  00000-0  10970-2 0  9993
2 41667  98.7719  81.8392 0029244  12.5450 347.6451 14.25105553500811
Epoch: 2025-12-07T12:14Z
TLE epoch observation values (Epoch: 2025-12-07T12:14:20.611Z)
Latitude
0.00001°
Longitude
-178.269°
Altitude
790.527 km
Speed
7.469 km/s
True Right ascension
05h 27m 21s
True Declination
0° 00' 00"
Sunlit
Object was in full shadow at epoch
Visualization orbit readout
Latitude
Unknown
Longitude
Unknown
Altitude
Unknown
Speed
Unknown
Apparent Right ascension
Unknown
Apparent Declination
Unknown
Sunlit
N/A
Visualization observer readout
Local Sidereal Time
19:55:59
Azimuth
Unknown
Elevation
Unknown
Doppler factor
Unknown
Orbital elements
Apogee altitude
826.3 km
Perigee altitude
784.285 km
Semi-major axis
7,183.43 km
Eccentricity
0.00292
Inclination
98.7719°
RAAN
81.8392°
Arg. of periapsis
12.545°
True anomaly
347.57314°
Mean anomaly
347.6451°
Eccentric anomaly
347.60915°
Mean motion
3.56488 °/min
Orbital period
100.99 mins
BSTAR
0.001097
Loading maneuver chart data...
Computing Atmospheric mass density...
Loading historical data...
Loading historical data...
Loading historical data...
Loading historical data...
Loading historical data...
Loading historical data...
Loading historical data...

Documentation

Showing up to 5 results
|